Content
SEND FEEDBACK

Daily
Averages
Monthly
Summary
United States of America

SAN LUIS LAKES, COLORADO


Home > North America > United States > Colorado
Elevation: 7540 feet     Latitude: 37 39N     Longitude: 105 48W

WEATHER
 
SELECT A DAY
Number of Records: 191,119;   Date Range: 1/1/95 - 7/20/14
 
SHARE

PRINT THIS DATA

[ ← Previous Day ]
WEATHER ALMANAC - JANUARY 31, 2013
[ Next Day → ]
[ °C ]   °F
Weather ElementAverageHighLow
Temperature21.1 °F39.9 °F (3:52 pm)3 °F (6:52 am)
Dewpoint9.3 °F17.1 °F (5:52 pm)-0.9 °F (6:52 am)
Humidity65.5 %88 % (4:52 am)28 % (3:52 pm)
Barometer30.31 in30.42 in (6:52 pm)30.19 in (1:52 am)
Wind Speed4 mph9.2 mph (9:52 pm)
Weather ElementAverage
Visibility10 mi
Wind DirectionSE (139.1 °)

Weather ElementTotal
Precipitation---
Heating Degree Days43.6 (Base 65)
Averaged from 23 records on January 31, 2013
WEATHER CONDITIONS BREAKOUT
WIND DIRECTION BREAKOUT
WEATHER BY HOUR - JANUARY 31, 2013
[ °C ]   °F
Local TimeTemperatureDewpointHumidityBarometerVisibilityWind DirectionWind SpeedGust SpeedPrecipitationEventsConditions
1:52 AM10.9 °F6.1 °F81 %30.19 in10.0 miSSW (200°)6.9 mphMostly Cloudy
2:52 AM10.9 °F6.1 °F81 %30.20 in10.0 miVariable3.5 mphScattered Clouds
3:52 AM5.0 °F1.9 °F87 %30.24 in10.0 miEast (80°)3.5 mphClear
4:52 AM3.9 °F1.0 °F88 %30.25 in10.0 miCalmClear
5:52 AM6.1 °F1.9 °F83 %30.31 in10.0 miESE (120°)5.8 mphClear
6:52 AM3.0 °F-0.9 °F84 %30.37 in10.0 miSSE (150°)4.6 mphClear
7:52 AM9.0 °F5.0 °F84 %30.37 in10.0 miSE (140°)5.8 mphClear
8:52 AM19.9 °F12.9 °F74 %30.36 in10.0 miSSE (150°)3.5 mphClear
9:52 AM28.0 °F16.0 °F61 %30.33 in10.0 miSSW (200°)8.1 mphClear
10:52 AM32.0 °F12.9 °F45 %30.34 in10.0 miSouth (190°)5.8 mphClear
11:52 AM36.0 °F10.0 °F34 %30.33 in10.0 miCalmClear
12:52 PM35.1 °F10.0 °F35 %30.30 in10.0 miCalmClear
1:52 PM37.0 °F9.0 °F31 %30.27 in10.0 miCalmClear
2:52 PM37.9 °F10.0 °F32 %30.25 in10.0 miNNW (330°)3.5 mphClear
3:52 PM39.9 °F9.0 °F28 %30.28 in10.0 miNorth (360°)3.5 mphClear
4:52 PM37.0 °F10.9 °F34 %30.31 in10.0 miVariable3.5 mphClear
5:52 PM28.0 °F17.1 °F63 %30.37 in10.0 miCalmClear
6:52 PM19.9 °F15.1 °F81 %30.42 in10.0 miCalmClear
7:52 PM19.9 °F15.1 °F81 %30.38 in10.0 miSSE (160°)6.9 mphClear
8:52 PM17.1 °F12.0 °F81 %30.35 in10.0 miNW (310°)6.9 mphClear
9:52 PM19.0 °F12.9 °F77 %30.31 in10.0 miNNW (340°)9.2 mphClear
10:52 PM18.0 °F12.0 °F78 %30.31 in10.0 miNNW (340°)4.6 mphClear
11:52 PM12.0 °F8.1 °F84 %30.32 in10.0 miSE (130°)5.8 mphClear
Hourly data recorded from KALS, located miles away from San Luis Lakes, Colorado







STORIES FROM OUR PARTNERS